+ View the NASA Portal
+ Center for Near-Earth Object Studies
IMPORTANT:
The SSD Announcement email list is now available. Major changes are coming in the near future, including possible hostname and/or URL changes. To be notified of such changes, subscribe to this email list.
Please visit
this page
for more details.
Don't show this message again
JPL Small-Body Database Browser
Search:
[
help
]
233465 (2006 KZ34)
Classification:
Main-belt Asteroid
SPK-ID:
2233465
[
Ephemeris
|
Orbit Diagram
|
Orbital Elements
|
Mission Design
|
Physical Parameters
|
Discovery Circumstances
|
Close-Approach Data
]
[ show orbit diagram ]
Orbital Elements at Epoch 2458600.5 (2019-Apr-27.0) TDB
Reference:
JPL 12
(heliocentric ecliptic J2000)
Element
Value
Uncertainty (1-sigma)
Units
e
.01206342162580859
7.6078e-08
a
2.859878936063628
4.2594e-08
au
q
2.825379010659123
2.4343e-07
au
i
3.181582586093839
5.6277e-06
deg
node
81.55290242154277
0.00020403
deg
peri
30.29111769817868
0.00050761
deg
M
9.386218674701995
0.00046475
deg
t
p
2458554.441682674811
(2019-Mar-11.94168267)
0.0022806
TDB
period
1766.525457345004
4.84
3.9465e-05
1.08e-07
d
yr
n
.2037898737904753
4.5527e-09
deg/d
Q
2.894378861468132
4.3108e-08
au
Orbit Determination Parameters
# obs. used (total)
150
data-arc span
5968 days (16.34 yr)
first obs. used
2002-08-08
last obs. used
2018-12-10
planetary ephem.
DE431
SB-pert. ephem.
SB431-N16
condition code
0
norm. resid. RMS
.62919
source
ORB
producer
Otto Matic
solution date
2019-Jul-14 07:27:14
Additional Information
Earth MOID
= 1.84284 au
Jupiter MOID
= 2.09197 au
T_jup
= 3.300
[ show covariance matrix ]
[
Ephemeris
|
Orbit Diagram
|
Orbital Elements
|
Mission Design
|
Physical Parameters
|
Discovery Circumstances
|
Close-Approach Data
]
Physical Parameter Table
Parameter
Symbol
Value
Units
Sigma
Reference
Notes
absolute magnitude
H
16.3
n/a
MPO422904
233465 (2006 KZ34)
Discovered 2006-May-20 by Spacewatch at Kitt Peak
Reference:
20100228/Numbers.arc
Last Updated:
2010-03-03
[ show close-approach data ]
[
Ephemeris
|
Orbit Diagram
|
Orbital Elements
|
Mission Design
|
Physical Parameters
|
Discovery Circumstances
|
Close-Approach Data
]
2019-Dec-13 21:50 UT
(server date/time)
Site Manager:
Ryan S. Park
Webmaster
:
Alan B. Chamberlin